Flag for Saudi Arabia Weather past 2 weeks in Riyadh, Saudi Arabia

Now
48 °F

Clear.


Feels Like: 45 °F
Forecast: 59 / 86 °F
Wind: 7 mph from West

Location: King Khaled International Airport

Current Time: Feb 28, 2015 at 4:33:04 AM

Latest Report: Feb 28, 2015 at 4:00 AM


Visibility: 10 mi

Pressure: 30.09 "Hg

Humidity: 37%

Dew point: 23 °F

Location of RiyadhLocation

Historic Weather in Riyadh — Graph

°F

Riyadh temperature yesterday

Maximum temperature yesterday: 73 °F (at 3:00 PM)
Minimum temperature yesterday: 48 °F (at 5:00 AM)
Average temperature yesterday: 60 °F

Past Weeks' High & Low Weather Summary

 TemperatureHumidityPressure
High90 °F (Feb 17, 2:00 PM)77% (Feb 15, 2:00 AM)30.30 "Hg (Feb 15, 2:00 AM)
Low41 °F (Feb 23, 4:00 AM)10% (Feb 20, 6:00 PM)29.65 "Hg (Feb 20, 4:00 PM)
Average64 °F30%30.02 "Hg
* Reported Feb 13 3:00 AM — Feb 28 3:00 AM, Riyadh, Weather by CustomWeather, © 2015

Note: Actual official high and low records may vary slightly from our data, if they occured in-between our weather recording intervals... More about our weather records

Advertising

Riyadh weather history for previous 24 hours

 ConditionsComfort  
Time TempWeatherWind HumidityBarometerVisibility
3:00 AM
Sat, Feb 28
48 °FClear.6 mph37%30.09 "Hg10 mi
2:00 AM50 °FClear.5 mph37%30.12 "Hg10 mi
1:00 AM52 °FClear.5 mph35%30.12 "Hg10 mi
12:00 AM54 °FClear.5 mph28%30.15 "Hg10 mi
11:00 PM
Fri, Feb 27
55 °FClear.5 mph28%30.15 "Hg10 mi
10:00 PM57 °FClear.3 mph29%30.15 "Hg10 mi
9:00 PM59 °FClear.5 mph25%30.15 "Hg10 mi
8:00 PM64 °FClear.8 mph22%30.12 "Hg10 mi
7:00 PM66 °FClear.8 mph19%30.12 "Hg10 mi
6:00 PM68 °FClear.12 mph18%30.12 "Hg10 mi
5:00 PM72 °FSunny.16 mph15%30.09 "Hg10 mi
4:00 PM72 °FSunny.15 mph14%30.09 "Hg10 mi
3:00 PM73 °FSunny.14 mph15%30.07 "Hg10 mi
2:00 PM72 °FSunny.15 mph17%30.09 "Hg10 mi
1:00 PM70 °FSunny.15 mph20%30.12 "Hg10 mi
12:00 PM68 °FSunny.15 mph23%30.15 "Hg10 mi
11:00 AM66 °FSunny.16 mph22%30.18 "Hg10 mi
9:00 AM59 °FSunny.13 mph34%30.18 "Hg10 mi
8:00 AM52 °FSunny.12 mph44%30.18 "Hg10 mi
7:00 AM48 °FSunny.7 mph43%30.18 "Hg10 mi
6:00 AM48 °FClear.9 mph40%30.15 "Hg10 mi
5:00 AM48 °FClear.7 mph37%30.15 "Hg10 mi
4:00 AM50 °FClear.8 mph35%30.12 "Hg10 mi
Weather by CustomWeather, © 2015

See weather overviewHow to use our weather pages